EW9960 Weather Reports


time (UTC)temp
C
wind
direction
speed
KPH
gust
KPH
rain 1hr
cm
rain 24hr
cm
rain mn
cm
humidity
%
barometer
mb
20260504081603 14 63 0.0 0.0 0.00 0.00 0.00 75 1012.1
20260504044552 15 175 0.0 3.2 0.00 0.00 0.00 65 1011.3
20260504043016 15 205 0.0 6.4 0.00 0.00 0.00 64 1011.5
20260504041547 15 186 0.0 6.4 0.00 0.00 0.00 62 1011.6
20260504040009 15 204 0.0 3.2 0.00 0.00 0.00 61 1011.8
20260504034550 15 161 0.0 4.8 0.00 0.00 0.00 60 1011.9
20260504033015 15 327 0.0 9.7 0.00 0.00 0.00 59 1012.0
20260504031554 15 245 0.0 6.4 0.00 0.00 0.00 58 1012.1
20260504030019 16 278 0.0 6.4 0.00 0.00 0.00 58 1012.2
20260504024544 16 122 0.0 4.8 0.00 0.00 0.00 57 1012.3
20260504023008 16 166 0.0 9.7 0.00 0.00 0.00 55 1012.5
20260504021515 16 266 0.0 4.8 0.00 0.00 0.00 55 1012.3
20260504020038 16 266 0.0 6.4 0.00 0.00 0.00 55 1012.2
20260504014606 16 252 0.0 3.2 0.00 0.00 0.00 54 1012.2
20260504013034 16 77 0.0 8.0 0.00 0.00 0.00 54 1012.4
20260504011546 16 279 0.0 3.2 0.00 0.00 0.00 52 1012.4
20260504010009 17 260 0.0 4.8 0.00 0.00 0.00 52 1012.4
20260504004538 17 250 0.0 4.8 0.00 0.00 0.00 51 1012.5
20260504003053 18 233 0.0 4.8 0.00 0.00 0.00 50 1012.5
20260504001528 18 204 0.0 4.8 0.00 0.00 0.00 49 1012.7
20260504000051 18 274 0.0 3.2 0.00 0.00 0.00 47 1012.8
20260503234529 19 261 0.0 8.0 0.00 0.00 0.00 44 1012.9
20260503233054 20 186 0.0 12.9 0.00 0.00 0.00 44 1013.0
20260503231527 20 186 3.2 11.3 0.00 0.00 0.00 41 1013.0
20260503230110 21 215 0.0 12.9 0.00 0.00 0.00 41 1012.9
20260503224531 21 162 0.0 11.3 0.00 0.00 0.00 41 1012.9
20260503223113 21 219 1.6 16.1 0.00 0.00 0.00 40 1013.0
20260503223007 21 331 1.6 16.1 0.00 0.00 0.00 39 1013.1
20260503221522 21 216 0.0 16.1 0.00 0.00 0.00 40 1013.3
20260503220047 21 188 1.6 11.3 0.00 0.00 0.00 41 1013.4
20260503214533 21 255 0.0 11.3 0.00 0.00 0.00 44 1013.4
20260503213051 20 220 1.6 11.3 0.00 0.00 0.00 40 1013.5
20260503213002 20 87 1.6 11.3 0.00 0.00 0.00 41 1013.5
20260503211519 21 168 1.6 8.0 0.00 0.00 0.00 42 1013.9
20260503210033 21 196 3.2 14.5 0.00 0.00 0.00 41 1014.3
20260503204543 21 10 1.6 14.5 0.00 0.00 0.00 42 1014.8
20260503203051 20 180 3.2 20.9 0.00 0.00 0.00 42 1015.3
20260503201555 20 66 0.0 17.7 0.00 0.00 0.00 43 1015.5
20260503200009 20 252 0.0 9.7 0.00 0.00 0.00 44 1015.8
20260503194520 21 262 1.6 11.3 0.00 0.23 0.00 46 1016.5
20260503193035 20 247 0.0 8.0 0.00 0.23 0.00 45 1016.9
20260503191554 20 209 0.0 9.7 0.00 0.23 0.00 44 1017.3
20260503190015 20 257 3.2 14.5 0.00 0.23 0.00 44 1017.7
20260503184525 20 291 1.6 11.3 0.00 0.23 0.00 45 1018.2
20260503183056 19 299 1.6 6.4 0.00 0.23 0.00 47 1018.4
20260503181541 19 207 0.0 6.4 0.00 0.23 0.00 49 1018.8
20260503180057 18 174 1.6 6.4 0.00 0.23 0.00 45 1019.2
20260503174520 18 221 0.0 4.8 0.00 0.23 0.00 48 1019.6
20260503173050 18 195 0.0 11.3 0.00 0.23 0.00 48 1019.7
20260503171527 18 293 0.0 6.4 0.00 0.23 0.00 49 1019.8